Date String (YYYY-MM-DD hh:mm:ss) UTC,Instrument flags,absolute air pressure of the measurement (hPa),sample flow rate (lpm),inlet stack bypass flow (lpm),air temperature of the measurement (°C),ambient temperature measured by the external sensor (°C),aerosol sample conditioner tube jacket temperature (°C),OPC LED temperature (°C),internal box temperature (°C),relative humidity of the measurement (%),span deviation,mass concentration of particles derived from Lorenz-Mie calculation of OPC scattering (μg/m³),mass concentration of particles derived from Lorenz-Mie calculation of OPC scattering (μg/m³),mass concentration of particles derived from Lorenz-Mie calculation of OPC scattering (μg/m³)
DateTimeUTC,F1_M11,P_M11,Q1_M11,Q2_M11,T1_M11,T2_M11,T3_M11,T4_M11,T5_M11,U1_M11,ZSPAN_M11,X0_M11,X2_M11,X1_M11
2024-02-14 16:00:00,SystemResetWarning,0823.7,5.00,000.00,018.4,017.9,000.0,026.7,020.0,17.9,0000.0,0002.27,0001.41,0000.98
2024-02-14 16:01:00,SystemResetWarning,0823.8,5.00,000.00,018.4,017.9,000.0,026.7,020.0,17.5,0000.0,0002.09,0001.26,0000.85
2024-02-14 16:02:00,SystemResetWarning,0823.8,5.00,000.00,018.4,017.9,000.0,026.7,020.0,18.0,0000.0,0001.93,0001.15,0000.74
2024-02-14 16:03:00,SystemResetWarning,0823.8,4.99,000.00,018.4,017.9,000.0,026.7,020.0,18.2,0000.0,0001.85,0001.08,0000.69
2024-02-14 16:04:00,SystemResetWarning,0823.8,5.00,000.00,018.4,017.9,000.0,026.7,020.1,18.6,0000.0,0002.09,0001.02,0000.66
2024-02-14 16:05:00,SystemResetWarning,0823.8,5.00,000.00,018.4,017.9,000.0,026.7,020.1,18.3,0000.0,0003.16,0000.98,0000.65
2024-02-14 16:06:00,SystemResetWarning,0823.7,5.00,000.00,018.4,017.9,000.0,026.7,020.1,16.9,0000.0,0003.17,0000.97,0000.64
2024-02-14 16:07:00,SystemResetWarning,0823.8,5.00,000.00,018.4,017.9,000.0,026.7,020.0,16.3,0000.0,0003.25,0001.00,0000.65
2024-02-14 16:08:00,SystemResetWarning,0823.8,5.00,000.00,018.4,018.0,000.0,026.7,020.0,16.6,0000.0,0003.19,0000.97,0000.64
2024-02-14 16:09:00,SystemResetWarning,0823.8,5.01,000.00,018.4,018.0,000.0,026.7,020.1,17.1,0000.0,0003.32,0000.98,0000.64
2024-02-14 16:10:00,SystemResetWarning,0823.8,5.01,000.00,018.4,018.0,000.0,026.7,020.1,17.0,0000.0,0003.56,0001.02,0000.64
2024-02-14 16:11:00,SystemResetWarning,0823.8,4.99,000.00,018.4,018.0,000.0,026.7,020.1,16.2,0000.0,0003.73,0001.04,0000.66
2024-02-14 16:12:00,SystemResetWarning,0823.8,4.99,000.00,018.4,018.0,000.0,026.7,020.1,15.9,0000.0,0003.91,0001.08,0000.72
2024-02-14 16:13:00,SystemResetWarning,0823.8,5.01,000.00,018.4,018.0,000.0,026.7,020.0,15.6,0000.0,0004.04,0001.12,0000.76
2024-02-14 16:14:00,SystemResetWarning,0823.8,5.00,000.00,018.4,018.0,000.0,026.7,020.0,16.2,0000.0,0004.11,0001.16,0000.78
2024-02-14 16:15:00,SystemResetWarning,0823.8,4.99,000.00,018.4,018.0,000.0,026.7,020.0,15.9,0000.0,0004.22,0001.18,0000.79
2024-02-14 16:16:00,SystemResetWarning,0823.8,5.00,000.00,018.4,018.0,000.0,026.7,020.0,15.9,0000.0,0003.37,0001.18,0000.80
2024-02-14 16:17:00,SystemResetWarning,0823.8,5.01,000.00,018.4,018.0,000.0,026.7,020.0,15.3,0000.0,0003.33,0001.17,0000.80
2024-02-14 16:18:00,SystemResetWarning,0823.7,5.00,000.00,018.4,018.0,000.0,026.7,020.0,15.8,0000.0,0003.23,0001.13,0000.78
2024-02-14 16:19:00,SystemResetWarning,0823.8,5.01,000.00,018.4,018.0,000.0,026.7,020.0,16.0,0000.0,0003.23,0001.16,0000.79
2024-02-14 16:20:00,SystemResetWarning,0823.8,5.00,000.00,018.4,018.0,000.0,026.7,020.0,15.6,0000.0,0003.29,0001.11,0000.77
2024-02-14 16:21:00,SystemResetWarning,0823.8,5.01,000.00,018.4,018.0,000.0,026.7,020.0,15.7,0000.0,0003.10,0001.05,0000.76
2024-02-14 16:22:00,SystemResetWarning,0823.8,5.01,000.00,018.4,018.0,000.0,026.7,020.0,15.3,0000.0,0002.95,0001.04,0000.75
2024-02-14 16:23:00,SystemResetWarning,0823.8,4.99,000.00,018.4,018.0,000.0,026.7,020.0,15.5,0000.0,0002.97,0000.98,0000.69
2024-02-14 16:24:00,SystemResetWarning,0823.8,4.99,000.00,018.4,018.0,000.0,026.7,020.0,15.4,0000.0,0003.29,0000.94,0000.63
2024-02-14 16:25:00,SystemResetWarning,0823.7,5.00,000.00,018.4,018.0,000.0,026.7,020.0,15.5,0000.0,0003.16,0000.87,0000.60
2024-02-14 16:26:00,SystemResetWarning,0823.8,5.02,000.00,018.4,018.0,000.0,026.7,020.0,15.6,0000.0,0002.86,0000.83,0000.58
2024-02-14 16:27:00,SystemResetWarning,0823.8,5.00,000.00,018.4,018.0,000.0,026.7,020.0,15.8,0000.0,0002.75,0000.81,0000.56
2024-02-14 16:28:00,SystemResetWarning,0823.8,4.98,000.00,018.5,018.0,000.0,026.7,020.1,15.7,0000.0,0002.83,0000.83,0000.55
2024-02-14 16:29:00,SystemResetWarning,0823.7,5.00,000.00,018.5,018.0,000.0,026.7,020.1,15.8,0000.0,0002.81,0000.81,0000.55
2024-02-14 16:30:00,SystemResetWarning,0823.7,5.01,000.00,018.5,018.0,000.0,026.7,020.1,15.8,0000.0,0002.78,0000.80,0000.54
2024-02-14 16:31:00,SystemResetWarning,0823.7,5.01,000.00,018.5,018.0,000.0,026.7,020.1,17.2,0000.0,0002.63,0000.79,0000.54
2024-02-14 16:32:00,SystemResetWarning,0823.7,5.02,000.00,018.5,018.0,000.0,026.7,020.1,15.6,0000.0,0002.53,0000.81,0000.54
2024-02-14 16:33:00,SystemResetWarning,0823.7,4.99,000.00,018.5,018.0,000.0,026.7,020.1,15.4,0000.0,0003.33,0000.79,0000.53
2024-02-14 16:34:00,SystemResetWarning,0823.7,4.99,000.00,018.5,018.0,000.0,026.7,020.1,15.8,0000.0,0003.63,0000.77,0000.52
2024-02-14 16:35:00,SystemResetWarning,0823.7,5.01,000.00,018.5,018.1,000.0,026.7,020.1,15.3,0000.0,0002.97,0000.75,0000.52
2024-02-14 16:36:00,SystemResetWarning,0823.7,5.01,000.00,018.5,018.1,000.0,026.7,020.1,15.3,0000.0,0003.00,0000.76,0000.51
2024-02-14 16:37:00,SystemResetWarning,0823.6,4.98,000.00,018.5,018.1,000.0,026.7,020.1,15.8,0000.0,0002.93,0000.75,0000.50
2024-02-14 16:38:00,SystemResetWarning,0823.7,4.99,000.00,018.5,018.1,000.0,026.7,020.1,15.3,0000.0,0002.78,0000.85,0000.59
2024-02-14 16:39:00,SystemResetWarning,0823.6,5.00,000.00,018.5,018.1,000.0,026.7,020.1,15.9,0000.0,0002.83,0000.94,0000.69
2024-02-14 16:40:00,SystemResetWarning,0823.6,5.01,000.00,018.5,018.1,000.0,026.7,020.1,15.5,0000.0,0002.93,0000.96,0000.69
2024-02-14 16:41:00,SystemResetWarning,0823.6,5.00,000.00,018.5,018.1,000.0,026.7,020.1,15.7,0000.0,0003.46,0000.95,0000.68
2024-02-14 16:42:00,SystemResetWarning,0823.6,4.99,000.00,018.5,018.1,000.0,026.7,020.1,15.6,0000.0,0004.14,0000.93,0000.68
2024-02-14 16:43:00,SystemResetWarning,0823.7,4.99,000.00,018.5,018.1,000.0,026.7,020.1,15.5,0000.0,0004.06,0000.91,0000.68
2024-02-14 16:44:00,SystemResetWarning,0823.7,4.99,000.00,018.5,018.1,000.0,026.7,020.1,15.3,0000.0,0003.45,0000.93,0000.68
2024-02-14 16:45:00,SystemResetWarning,0823.7,5.01,000.00,018.5,018.1,000.0,026.7,020.1,15.1,0000.0,0002.83,0000.95,0000.68
2024-02-14 16:46:00,SystemResetWarning,0823.7,5.00,000.00,018.5,018.1,000.0,026.7,020.1,15.6,0000.0,0002.90,0000.97,0000.68
2024-02-14 16:47:00,SystemResetWarning,0823.8,5.01,000.00,018.5,018.1,000.0,026.7,020.1,15.8,0000.0,0002.86,0000.95,0000.69
2024-02-14 16:48:00,SystemResetWarning,0823.7,5.01,000.00,018.6,018.1,000.0,026.7,020.1,15.5,0000.0,0004.04,0000.98,0000.70
2024-02-14 16:49:00,SystemResetWarning,0823.8,5.00,000.00,018.6,018.1,000.0,026.7,020.1,15.4,0000.0,0004.67,0000.91,0000.60
2024-02-14 16:50:00,SystemResetWarning,0823.8,5.00,000.00,018.6,018.1,000.0,026.8,020.1,15.2,0000.0,0004.48,0000.80,0000.51
2024-02-14 16:51:00,SystemResetWarning,0823.8,5.00,000.00,018.6,018.1,000.0,026.8,020.1,15.6,0000.0,0004.84,0000.83,0000.52
2024-02-14 16:52:00,SystemResetWarning,0823.8,4.99,000.00,018.6,018.1,000.0,026.8,020.1,15.6,0000.0,0004.60,0000.88,0000.53
2024-02-14 16:53:00,SystemResetWarning,0823.8,5.00,000.00,018.6,018.1,000.0,026.8,020.2,15.5,0000.0,0003.90,0000.88,0000.52
2024-02-14 16:54:00,SystemResetWarning,0823.8,5.00,000.00,018.6,018.1,000.0,026.8,020.1,15.4,0000.0,0003.89,0000.89,0000.52
2024-02-14 16:55:00,SystemResetWarning,0823.7,5.00,000.00,018.6,018.1,000.0,026.8,020.1,15.4,0000.0,0003.87,0000.87,0000.52
2024-02-14 16:56:00,SystemResetWarning,0823.8,5.00,000.00,018.6,018.1,000.0,026.8,020.1,15.5,0000.0,0004.26,0000.87,0000.53
2024-02-14 16:57:00,SystemResetWarning,0823.8,5.00,000.00,018.6,018.1,000.0,026.8,020.2,15.2,0000.0,0004.26,0000.88,0000.54
2024-02-14 16:58:00,SystemResetWarning,0823.8,4.99,000.00,018.6,018.1,000.0,026.8,020.1,15.1,0000.0,0004.35,0000.92,0000.54
2024-02-14 16:59:00,SystemResetWarning,0823.9,4.99,000.00,018.6,018.1,000.0,026.8,020.1,15.1,0000.0,0003.24,0000.90,0000.53
